UAL1691 KSFO-KDEN

Flight info

Callsign UAL1691
Flight time 1h 52m
Altitude 39000
Route TRUKN2 SYRAH Q128 JSICA LUDOH BUMMP SSKII4
Aircraft B77W/H-SDE1E2E3FGHIJ2J3J4J5M1RWXY/LB1D1

Departure

Time 2026-05-04 00:46
Airport San Francisco International Airport (KSFO)

Arrival

Time 2026-05-04 02:38
Airport Denver International Airport (KDEN)
Time Latitude Longitude Altitude Speed Heading
2026-05-04 00:07 37.61864 -122.39180 27 ft 0 kts 207°
2026-05-04 00:09 37.61864 -122.39179 27 ft 0 kts 207°
2026-05-04 00:27 37.61885 -122.39166 26 ft 4 kts 207°
2026-05-04 00:27 37.61905 -122.39153 25 ft 3 kts 207°
2026-05-04 00:28 37.61922 -122.39135 24 ft 4 kts 259°
2026-05-04 00:28 37.61919 -122.39108 25 ft 3 kts 297°
2026-05-04 00:28 37.61906 -122.39078 25 ft 2 kts 297°
2026-05-04 00:28 37.61905 -122.39074 25 ft 0 kts 297°
2026-05-04 00:32 37.61926 -122.39125 25 ft 12 kts 295°
2026-05-04 00:32 37.61949 -122.39188 25 ft 0 kts 295°
2026-05-04 00:37 37.61951 -122.39191 27 ft 1 kts 296°
2026-05-04 00:38 37.61986 -122.39275 27 ft 20 kts 303°
2026-05-04 00:38 37.62118 -122.39283 27 ft 19 kts 26°
2026-05-04 00:38 37.62245 -122.39199 27 ft 22 kts 32°
2026-05-04 00:38 37.62314 -122.39046 27 ft 19 kts 102°
2026-05-04 00:39 37.62268 -122.38873 27 ft 25 kts 88°
2026-05-04 00:39 37.62216 -122.38626 27 ft 32 kts 118°
2026-05-04 00:39 37.62092 -122.38339 27 ft 40 kts 118°
2026-05-04 00:39 37.61981 -122.38064 27 ft 34 kts 118°
2026-05-04 00:40 37.61910 -122.37962 27 ft 0 kts 147°
2026-05-04 00:40 37.61899 -122.37950 27 ft 6 kts 136°
2026-05-04 00:40 37.61830 -122.37838 27 ft 26 kts 121°
2026-05-04 00:40 37.61741 -122.37577 27 ft 37 kts 110°
2026-05-04 00:41 37.61593 -122.37202 25 ft 55 kts 120°
2026-05-04 00:41 37.61454 -122.36914 27 ft 32 kts 128°
2026-05-04 00:41 37.61332 -122.36692 27 ft 31 kts 120°
2026-05-04 00:41 37.61230 -122.36458 27 ft 30 kts 118°
2026-05-04 00:42 37.61135 -122.36231 27 ft 27 kts 118°
2026-05-04 00:42 37.61084 -122.36108 27 ft 3 kts 117°
2026-05-04 00:42 37.61072 -122.36078 27 ft 4 kts 114°
2026-05-04 00:42 37.61063 -122.36038 27 ft 6 kts 101°
2026-05-04 00:43 37.61070 -122.35959 27 ft 10 kts 68°
2026-05-04 00:43 37.61085 -122.35931 27 ft 0 kts 48°
2026-05-04 00:43 37.61122 -122.35900 27 ft 12 kts 30°
2026-05-04 00:44 37.61197 -122.35911 27 ft 12 kts 321°
2026-05-04 00:44 37.61216 -122.35947 27 ft 0 kts 296°
2026-05-04 00:45 37.61221 -122.35960 27 ft 13 kts 295°
2026-05-04 00:46 37.61413 -122.36423 27 ft 107 kts 298°
2026-05-04 00:46 37.61895 -122.37565 51 ft 182 kts 301°
2026-05-04 00:46 37.62652 -122.38932 785 ft 185 kts 301°
2026-05-04 00:46 37.63297 -122.40313 1893 ft 185 kts 304°
2026-05-04 00:47 37.64415 -122.41253 2328 ft 218 kts 346°
2026-05-04 00:47 37.66021 -122.40993 2653 ft 256 kts 25°
2026-05-04 00:47 37.67311 -122.39374 3339 ft 272 kts 65°
2026-05-04 00:47 37.67853 -122.37104 4290 ft 270 kts 77°
2026-05-04 00:48 37.68317 -122.34818 5457 ft 266 kts 76°
2026-05-04 00:48 37.68824 -122.32586 6639 ft 263 kts 77°
2026-05-04 00:48 37.69381 -122.30343 7543 ft 270 kts 76°
2026-05-04 00:48 37.69981 -122.28060 8440 ft 277 kts 75°
2026-05-04 00:49 37.70606 -122.25731 9345 ft 283 kts 74°
2026-05-04 00:49 37.71246 -122.23353 10238 ft 287 kts 73°
2026-05-04 00:49 37.71933 -122.20915 10767 ft 305 kts 69°
2026-05-04 00:49 37.73080 -122.18531 11002 ft 337 kts 57°
2026-05-04 00:50 37.74470 -122.16017 11524 ft 357 kts 57°
2026-05-04 00:50 37.75889 -122.13396 12489 ft 365 kts 58°
2026-05-04 00:50 37.77311 -122.10724 13756 ft 366 kts 58°
2026-05-04 00:50 37.78726 -122.08017 14848 ft 371 kts 60°
2026-05-04 00:51 37.80140 -122.05280 15752 ft 380 kts 60°
2026-05-04 00:51 37.81596 -122.02449 16749 ft 386 kts 59°
2026-05-04 00:51 37.82923 -121.99510 17667 ft 384 kts 72°
2026-05-04 00:51 37.83617 -121.96252 18417 ft 386 kts 81°
2026-05-04 00:52 37.84169 -121.92897 19350 ft 390 kts 81°
2026-05-04 00:52 37.84737 -121.89541 20383 ft 391 kts 80°
2026-05-04 00:52 37.85323 -121.86168 21423 ft 392 kts 80°
2026-05-04 00:52 37.85921 -121.82823 22417 ft 395 kts 79°
2026-05-04 00:53 37.86541 -121.79425 23356 ft 398 kts 80°
2026-05-04 00:53 37.87166 -121.75999 24201 ft 400 kts 79°
2026-05-04 00:53 37.87790 -121.72557 25016 ft 402 kts 79°
2026-05-04 00:53 37.88421 -121.69101 25802 ft 404 kts 79°
2026-05-04 00:54 37.89066 -121.65623 26572 ft 406 kts 78°
2026-05-04 00:54 37.89718 -121.62129 27282 ft 409 kts 78°
2026-05-04 00:54 37.90364 -121.58604 28001 ft 412 kts 78°
2026-05-04 00:54 37.91014 -121.55063 28685 ft 415 kts 78°
2026-05-04 00:55 37.91668 -121.51482 29303 ft 419 kts 77°
2026-05-04 00:55 37.92328 -121.47856 29768 ft 425 kts 77°
2026-05-04 00:55 37.92987 -121.44224 30272 ft 429 kts 77°
2026-05-04 00:55 37.93659 -121.40523 30671 ft 435 kts 78°
2026-05-04 00:56 37.94340 -121.36745 30840 ft 444 kts 78°
2026-05-04 00:56 37.95042 -121.32895 31117 ft 450 kts 78°
2026-05-04 00:56 37.95748 -121.28978 31446 ft 455 kts 78°
2026-05-04 00:56 37.96443 -121.25108 31803 ft 459 kts 78°
2026-05-04 00:57 37.97156 -121.21143 32167 ft 462 kts 78°
2026-05-04 00:57 37.97873 -121.17161 32579 ft 464 kts 78°
2026-05-04 00:57 37.98590 -121.13158 32984 ft 466 kts 78°
2026-05-04 00:57 37.99307 -121.09120 33357 ft 469 kts 79°
2026-05-04 00:58 37.99966 -121.05115 33738 ft 471 kts 80°
2026-05-04 00:58 38.00603 -121.01023 34081 ft 474 kts 81°
2026-05-04 00:58 38.01231 -120.96908 34387 ft 476 kts 81°
2026-05-04 00:58 38.01859 -120.92759 34638 ft 480 kts 81°
2026-05-04 00:59 38.02480 -120.88578 34911 ft 483 kts 82°
2026-05-04 00:59 38.03103 -120.84377 35233 ft 485 kts 81°
2026-05-04 00:59 38.03739 -120.80167 35600 ft 486 kts 81°
2026-05-04 00:59 38.04388 -120.75958 35915 ft 488 kts 81°
2026-05-04 01:00 38.05041 -120.71758 36199 ft 491 kts 81°
2026-05-04 01:00 38.05689 -120.67503 36498 ft 493 kts 81°
2026-05-04 01:00 38.06345 -120.63228 36788 ft 495 kts 81°
2026-05-04 01:01 38.07670 -120.54544 36958 ft 502 kts 81°
2026-05-04 01:01 38.08982 -120.45871 36927 ft 496 kts 81°
2026-05-04 01:02 38.10259 -120.37335 36938 ft 493 kts 81°
2026-05-04 01:02 38.11531 -120.28773 36951 ft 493 kts 81°
2026-05-04 01:03 38.12800 -120.20210 36951 ft 494 kts 81°
2026-05-04 01:03 38.14068 -120.11619 36950 ft 495 kts 81°
2026-05-04 01:04 38.15325 -120.03057 36963 ft 495 kts 81°
2026-05-04 01:04 38.16585 -119.94425 36974 ft 500 kts 81°
2026-05-04 01:05 38.17854 -119.85669 36969 ft 512 kts 81°
2026-05-04 01:05 38.19157 -119.76648 36975 ft 523 kts 81°
2026-05-04 01:06 38.20476 -119.67459 36986 ft 531 kts 81°
2026-05-04 01:06 38.21800 -119.58193 36964 ft 533 kts 82°
2026-05-04 01:07 38.23117 -119.48925 36962 ft 533 kts 81°
2026-05-04 01:07 38.24420 -119.39700 36947 ft 531 kts 82°
2026-05-04 01:08 38.25719 -119.30441 36910 ft 530 kts 82°
2026-05-04 01:08 38.26996 -119.21274 36884 ft 529 kts 82°
2026-05-04 01:09 38.28276 -119.12037 36871 ft 529 kts 82°
2026-05-04 01:09 38.29545 -119.02826 36866 ft 528 kts 82°
2026-05-04 01:10 38.30810 -118.93587 36844 ft 529 kts 82°
2026-05-04 01:10 38.32067 -118.84354 36872 ft 530 kts 82°
2026-05-04 01:11 38.33313 -118.75138 36887 ft 531 kts 82°
2026-05-04 01:11 38.34565 -118.65832 36891 ft 532 kts 82°
2026-05-04 01:12 38.35790 -118.56538 36890 ft 531 kts 82°
2026-05-04 01:12 38.37039 -118.47254 36778 ft 531 kts 82°
2026-05-04 01:13 38.38274 -118.37963 36762 ft 531 kts 82°
2026-05-04 01:13 38.39484 -118.28690 36743 ft 530 kts 82°
2026-05-04 01:14 38.40682 -118.19430 36753 ft 534 kts 82°
2026-05-04 01:14 38.41903 -118.10048 36757 ft 537 kts 82°
2026-05-04 01:15 38.43119 -118.00595 36746 ft 540 kts 82°
2026-05-04 01:15 38.44320 -117.91178 36748 ft 541 kts 82°
2026-05-04 01:16 38.45523 -117.81695 36758 ft 541 kts 82°
2026-05-04 01:16 38.46718 -117.72216 36749 ft 541 kts 82°
2026-05-04 01:17 38.47906 -117.62727 36758 ft 539 kts 82°
2026-05-04 01:17 38.49073 -117.53348 36772 ft 538 kts 82°
2026-05-04 01:18 38.50239 -117.43901 36788 ft 537 kts 83°
2026-05-04 01:18 38.51389 -117.34537 36783 ft 535 kts 83°
2026-05-04 01:19 38.52120 -117.25104 36782 ft 531 kts 92°
2026-05-04 01:19 38.51887 -117.15729 36795 ft 530 kts 95°
2026-05-04 01:20 38.51582 -117.06308 36811 ft 529 kts 94°
2026-05-04 01:20 38.51311 -116.96905 36811 ft 532 kts 94°
2026-05-04 01:21 38.51049 -116.87408 36831 ft 540 kts 94°
2026-05-04 01:21 38.50802 -116.77847 36833 ft 543 kts 94°
2026-05-04 01:22 38.50541 -116.68198 36842 ft 543 kts 95°
2026-05-04 01:22 38.50265 -116.58569 36840 ft 542 kts 95°
2026-05-04 01:23 38.49982 -116.49004 36840 ft 541 kts 95°
2026-05-04 01:23 38.49691 -116.39406 36832 ft 540 kts 95°
2026-05-04 01:24 38.49393 -116.29821 36839 ft 539 kts 95°
2026-05-04 01:24 38.49084 -116.20252 36800 ft 540 kts 95°
2026-05-04 01:25 38.48805 -116.10696 36800 ft 544 kts 95°
2026-05-04 01:25 38.48490 -116.00989 36806 ft 547 kts 95°
2026-05-04 01:26 38.48125 -115.91265 36807 ft 549 kts 96°
2026-05-04 01:26 38.47766 -115.81543 36796 ft 551 kts 95°
2026-05-04 01:27 38.47413 -115.71759 36804 ft 552 kts 95°
2026-05-04 01:27 38.47053 -115.61940 36796 ft 551 kts 95°
2026-05-04 01:28 38.46689 -115.52238 36804 ft 550 kts 95°
2026-05-04 01:28 38.46300 -115.42491 36797 ft 549 kts 97°
2026-05-04 01:29 38.45892 -115.34382 36795 ft 552 kts 96°
2026-05-04 01:29 38.45495 -115.22956 36796 ft 554 kts 95°
2026-05-04 01:30 38.45195 -115.14707 36795 ft 555 kts 96°
2026-05-04 01:30 38.44797 -115.04913 36787 ft 556 kts 96°
2026-05-04 01:31 38.44371 -114.95039 36795 ft 556 kts 96°
2026-05-04 01:31 38.43940 -114.85221 36780 ft 555 kts 96°
2026-05-04 01:32 38.43503 -114.75389 36795 ft 553 kts 96°
2026-05-04 01:32 38.43070 -114.65654 36746 ft 555 kts 95°
2026-05-04 01:33 38.42582 -114.55785 36807 ft 561 kts 97°
2026-05-04 01:33 38.42114 -114.45790 36803 ft 565 kts 96°
2026-05-04 01:34 38.41658 -114.35745 36781 ft 565 kts 96°
2026-05-04 01:34 38.41191 -114.25904 36788 ft 555 kts 96°
2026-05-04 01:35 38.40704 -114.16074 36791 ft 554 kts 96°
2026-05-04 01:35 38.40207 -114.06250 36790 ft 554 kts 97°
2026-05-04 01:36 38.39708 -113.96505 36804 ft 556 kts 97°
2026-05-04 01:36 38.39197 -113.86667 36778 ft 557 kts 97°
2026-05-04 01:37 38.38679 -113.76772 36779 ft 561 kts 97°
2026-05-04 01:37 38.38169 -113.66818 36815 ft 564 kts 97°
2026-05-04 01:38 38.37609 -113.56820 36812 ft 566 kts 97°
2026-05-04 01:38 38.37045 -113.46861 36799 ft 564 kts 97°
2026-05-04 01:39 38.36486 -113.36906 36826 ft 561 kts 97°
2026-05-04 01:39 38.35925 -113.27044 36853 ft 561 kts 97°
2026-05-04 01:40 38.35352 -113.17132 36889 ft 561 kts 97°
2026-05-04 01:40 38.34770 -113.07214 36915 ft 561 kts 97°
2026-05-04 01:41 38.34181 -112.97337 36908 ft 562 kts 97°
2026-05-04 01:41 38.33579 -112.87399 36894 ft 562 kts 97°
2026-05-04 01:42 38.32968 -112.77445 36872 ft 562 kts 98°
2026-05-04 01:42 38.32353 -112.67517 36878 ft 562 kts 98°
2026-05-04 01:43 38.31732 -112.57634 36880 ft 563 kts 98°
2026-05-04 01:43 38.31097 -112.47699 36882 ft 563 kts 98°
2026-05-04 01:44 38.30454 -112.37764 36888 ft 562 kts 98°
2026-05-04 01:44 38.29831 -112.27900 36898 ft 561 kts 97°
2026-05-04 01:45 38.29193 -112.17987 36980 ft 562 kts 99°
2026-05-04 01:45 38.28162 -112.03032 36905 ft 568 kts 98°
2026-05-04 01:46 38.27457 -111.93001 36925 ft 569 kts 98°
2026-05-04 01:46 38.26752 -111.82945 36910 ft 571 kts 98°
2026-05-04 01:47 38.26048 -111.72907 36913 ft 570 kts 98°
2026-05-04 01:47 38.25333 -111.62841 36903 ft 569 kts 98°
2026-05-04 01:48 38.24618 -111.52886 36897 ft 569 kts 98°
2026-05-04 01:48 38.23885 -111.42864 36861 ft 569 kts 98°
2026-05-04 01:49 38.23098 -111.32848 36895 ft 568 kts 97°
2026-05-04 01:49 38.22440 -111.22793 36875 ft 572 kts 98°
2026-05-04 01:50 38.21664 -111.12689 36836 ft 575 kts 99°
2026-05-04 01:50 38.20870 -111.02616 36845 ft 575 kts 99°
2026-05-04 01:51 38.20083 -110.92502 36845 ft 574 kts 99°
2026-05-04 01:51 38.19295 -110.82386 36847 ft 573 kts 99°
2026-05-04 01:52 38.18501 -110.72314 36845 ft 572 kts 99°
2026-05-04 01:52 38.17702 -110.62305 36792 ft 571 kts 99°
2026-05-04 01:53 38.16889 -110.52224 36793 ft 574 kts 99°
2026-05-04 01:53 38.16064 -110.42098 36793 ft 578 kts 99°
2026-05-04 01:54 38.15222 -110.31891 36795 ft 581 kts 99°
2026-05-04 01:54 38.14375 -110.21726 36797 ft 583 kts 99°
2026-05-04 01:55 38.13585 -110.11478 36808 ft 584 kts 95°
2026-05-04 01:55 38.13310 -110.01136 36809 ft 583 kts 94°
2026-05-04 01:56 38.13078 -109.90909 36814 ft 581 kts 94°
2026-05-04 01:56 38.12807 -109.80658 36841 ft 579 kts 94°
2026-05-04 01:57 38.12507 -109.70419 36845 ft 579 kts 94°
2026-05-04 01:57 38.12182 -109.60200 36865 ft 582 kts 94°
2026-05-04 01:58 38.11869 -109.49910 36887 ft 588 kts 94°
2026-05-04 01:58 38.11551 -109.39483 36892 ft 591 kts 94°
2026-05-04 01:59 38.11217 -109.29096 36902 ft 591 kts 94°
2026-05-04 01:59 38.10866 -109.18650 36896 ft 589 kts 94°
2026-05-04 02:00 38.10503 -109.08291 36908 ft 586 kts 94°
2026-05-04 02:00 38.10266 -108.98025 36923 ft 576 kts 92°
2026-05-04 02:01 38.10541 -108.92969 36893 ft 576 kts 77°
2026-05-04 02:01 38.11812 -108.88254 36920 ft 568 kts 59°
2026-05-04 02:01 38.15561 -108.79378 36899 ft 571 kts 58°
2026-05-04 02:02 38.19268 -108.70383 36908 ft 575 kts 59°
2026-05-04 02:02 38.22846 -108.61276 36905 ft 577 kts 60°
2026-05-04 02:03 38.26374 -108.52158 36918 ft 576 kts 60°
2026-05-04 02:03 38.29919 -108.43008 36916 ft 575 kts 59°
2026-05-04 02:04 38.33466 -108.33860 36918 ft 573 kts 59°
2026-05-04 02:04 38.36991 -108.24747 36920 ft 572 kts 60°
2026-05-04 02:05 38.40469 -108.15723 36964 ft 569 kts 60°
2026-05-04 02:05 38.43947 -108.06668 36998 ft 568 kts 60°
2026-05-04 02:06 38.47413 -107.97611 37026 ft 567 kts 60°
2026-05-04 02:06 38.50843 -107.88538 37034 ft 567 kts 60°
2026-05-04 02:07 38.54264 -107.79444 36905 ft 568 kts 60°
2026-05-04 02:07 38.57678 -107.70356 36919 ft 568 kts 60°
2026-05-04 02:08 38.61078 -107.61280 36894 ft 567 kts 60°
2026-05-04 02:08 38.64487 -107.52157 36929 ft 567 kts 60°
2026-05-04 02:09 38.67880 -107.43104 36745 ft 556 kts 60°
2026-05-04 02:09 38.69531 -107.38739 36336 ft 547 kts 60°
2026-05-04 02:09 38.71191 -107.34359 35488 ft 547 kts 61°
2026-05-04 02:10 38.72829 -107.29954 34524 ft 549 kts 61°
2026-05-04 02:10 38.74500 -107.25572 33732 ft 544 kts 61°
2026-05-04 02:10 38.76169 -107.21233 32813 ft 540 kts 62°
2026-05-04 02:10 38.77807 -107.16910 31955 ft 536 kts 62°
2026-05-04 02:11 38.79389 -107.12654 31733 ft 519 kts 62°
2026-05-04 02:11 38.80927 -107.08533 31637 ft 502 kts 62°
2026-05-04 02:11 38.82412 -107.04560 31562 ft 487 kts 62°
2026-05-04 02:11 38.83835 -107.00752 31480 ft 472 kts 62°
2026-05-04 02:12 38.85235 -106.97003 31328 ft 460 kts 62°
2026-05-04 02:12 38.86603 -106.93339 31053 ft 452 kts 62°
2026-05-04 02:12 38.87959 -106.89703 30654 ft 449 kts 62°
2026-05-04 02:12 38.89299 -106.86107 30258 ft 445 kts 62°
2026-05-04 02:13 38.90630 -106.82528 29830 ft 442 kts 62°
2026-05-04 02:13 38.91950 -106.78974 29379 ft 438 kts 62°
2026-05-04 02:13 38.93254 -106.75459 28992 ft 434 kts 62°
2026-05-04 02:13 38.94548 -106.71964 28566 ft 430 kts 62°
2026-05-04 02:14 38.95812 -106.68548 28184 ft 425 kts 62°
2026-05-04 02:14 38.97074 -106.65132 27770 ft 422 kts 62°
2026-05-04 02:14 38.98330 -106.61729 27393 ft 419 kts 62°
2026-05-04 02:14 38.99574 -106.58356 27089 ft 416 kts 62°
2026-05-04 02:15 39.00804 -106.55012 26690 ft 411 kts 62°
2026-05-04 02:15 39.02018 -106.51698 26383 ft 410 kts 62°
2026-05-04 02:15 39.03217 -106.48421 26064 ft 411 kts 62°
2026-05-04 02:15 39.04454 -106.45039 25743 ft 413 kts 62°
2026-05-04 02:16 39.05657 -106.41744 25440 ft 412 kts 63°
2026-05-04 02:16 39.06887 -106.38371 25123 ft 410 kts 63°
2026-05-04 02:16 39.07686 -106.36177 24931 ft 409 kts 63°
2026-05-04 02:16 39.09281 -106.31791 24495 ft 407 kts 63°
2026-05-04 02:17 39.10475 -106.28505 24203 ft 405 kts 63°
2026-05-04 02:17 39.11672 -106.25208 23894 ft 403 kts 63°
2026-05-04 02:17 39.12461 -106.23036 23687 ft 402 kts 63°
2026-05-04 02:17 39.13645 -106.19770 23305 ft 401 kts 63°
2026-05-04 02:18 39.14819 -106.16528 22956 ft 398 kts 63°
2026-05-04 02:18 39.16354 -106.12276 22581 ft 392 kts 63°
2026-05-04 02:18 39.17125 -106.10132 22448 ft 389 kts 63°
2026-05-04 02:18 39.18256 -106.06982 22190 ft 385 kts 63°
2026-05-04 02:19 39.19378 -106.03858 21921 ft 381 kts 63°
2026-05-04 02:19 39.20485 -106.00772 21668 ft 378 kts 63°
2026-05-04 02:19 39.21573 -105.97739 21428 ft 376 kts 63°
2026-05-04 02:19 39.22669 -105.94680 21178 ft 377 kts 63°
2026-05-04 02:20 39.23769 -105.91605 20924 ft 378 kts 63°
2026-05-04 02:20 39.24879 -105.88516 20678 ft 378 kts 63°
2026-05-04 02:20 39.25985 -105.85451 20426 ft 376 kts 63°
2026-05-04 02:20 39.27091 -105.82384 20168 ft 375 kts 63°
2026-05-04 02:21 39.28176 -105.79371 19927 ft 374 kts 63°
2026-05-04 02:21 39.29267 -105.76336 19666 ft 372 kts 64°
2026-05-04 02:21 39.30354 -105.73310 19416 ft 370 kts 64°
2026-05-04 02:21 39.31433 -105.70303 19175 ft 368 kts 64°
2026-05-04 02:22 39.32506 -105.67309 18947 ft 367 kts 64°
2026-05-04 02:22 39.33586 -105.64330 18715 ft 365 kts 63°
2026-05-04 02:22 39.34667 -105.61374 18472 ft 363 kts 63°
2026-05-04 02:22 39.35746 -105.58426 18235 ft 362 kts 63°
2026-05-04 02:23 39.36820 -105.55489 17972 ft 360 kts 63°
2026-05-04 02:23 39.37884 -105.52569 17717 ft 358 kts 63°
2026-05-04 02:23 39.38943 -105.49662 17500 ft 355 kts 63°
2026-05-04 02:23 39.39977 -105.46817 17266 ft 353 kts 63°
2026-05-04 02:24 39.41020 -105.43943 17052 ft 352 kts 64°
2026-05-04 02:24 39.41764 -105.40927 16783 ft 353 kts 84°
2026-05-04 02:24 39.41825 -105.37782 16558 ft 349 kts 90°
2026-05-04 02:24 39.41804 -105.34632 16285 ft 350 kts 90°
2026-05-04 02:25 39.41784 -105.31477 16017 ft 351 kts 90°
2026-05-04 02:25 39.41781 -105.28361 15767 ft 351 kts 89°
2026-05-04 02:25 39.41788 -105.25212 15496 ft 350 kts 89°
2026-05-04 02:25 39.41794 -105.22054 15244 ft 347 kts 89°
2026-05-04 02:26 39.41805 -105.18944 14953 ft 343 kts 88°
2026-05-04 02:26 39.41820 -105.15908 14698 ft 338 kts 88°
2026-05-04 02:26 39.41834 -105.12893 14454 ft 332 kts 89°
2026-05-04 02:26 39.41845 -105.09930 14214 ft 328 kts 88°
2026-05-04 02:27 39.41854 -105.06994 13953 ft 322 kts 88°
2026-05-04 02:27 39.41866 -105.04120 13710 ft 317 kts 88°
2026-05-04 02:27 39.41878 -105.01291 13457 ft 312 kts 88°
2026-05-04 02:27 39.41886 -104.98501 13297 ft 307 kts 88°
2026-05-04 02:28 39.41892 -104.95798 13072 ft 301 kts 88°
2026-05-04 02:28 39.41951 -104.93118 12843 ft 292 kts 83°
2026-05-04 02:28 39.42171 -104.90586 12589 ft 279 kts 81°
2026-05-04 02:28 39.42416 -104.88080 12264 ft 280 kts 82°
2026-05-04 02:29 39.42654 -104.85589 11975 ft 278 kts 82°
2026-05-04 02:29 39.42885 -104.83111 11705 ft 275 kts 82°
2026-05-04 02:29 39.43100 -104.80693 11449 ft 272 kts 82°
2026-05-04 02:29 39.43319 -104.78267 11198 ft 269 kts 81°
2026-05-04 02:30 39.43571 -104.75912 11054 ft 259 kts 73°
2026-05-04 02:30 39.44163 -104.73724 11017 ft 256 kts 65°
2026-05-04 02:30 39.44850 -104.71622 10997 ft 257 kts 64°
2026-05-04 02:30 39.45795 -104.69708 10985 ft 251 kts 38°
2026-05-04 02:31 39.47165 -104.68583 11011 ft 250 kts 19°
2026-05-04 02:31 39.48833 -104.67956 11014 ft 251 kts 11°
2026-05-04 02:31 39.50523 -104.67394 10994 ft 250 kts 12°
2026-05-04 02:31 39.52194 -104.66828 10987 ft 245 kts 12°
2026-05-04 02:32 39.53850 -104.66421 10924 ft 244 kts
2026-05-04 02:32 39.55572 -104.66336 10614 ft 249 kts 358°
2026-05-04 02:32 39.57312 -104.66338 10321 ft 250 kts 357°
2026-05-04 02:32 39.59051 -104.66334 9985 ft 249 kts 358°
2026-05-04 02:33 39.60784 -104.66320 9666 ft 248 kts 358°
2026-05-04 02:33 39.62503 -104.66302 9322 ft 243 kts 357°
2026-05-04 02:33 39.64157 -104.66279 9003 ft 231 kts 358°
2026-05-04 02:33 39.65700 -104.66260 8721 ft 217 kts 358°
2026-05-04 02:34 39.67165 -104.66240 8478 ft 202 kts 358°
2026-05-04 02:34 39.68521 -104.66227 8170 ft 188 kts 358°
2026-05-04 02:34 39.69770 -104.66206 7965 ft 175 kts 357°
2026-05-04 02:34 39.70992 -104.66197 7743 ft 175 kts 357°
2026-05-04 02:35 39.72188 -104.66184 7531 ft 165 kts 357°
2026-05-04 02:35 39.73290 -104.66170 7301 ft 154 kts 357°
2026-05-04 02:35 39.74331 -104.66155 7113 ft 148 kts 358°
2026-05-04 02:35 39.75354 -104.66144 6936 ft 146 kts 357°
2026-05-04 02:36 39.76362 -104.66132 6738 ft 143 kts 356°
2026-05-04 02:36 39.77365 -104.66119 6585 ft 145 kts 357°
2026-05-04 02:36 39.78386 -104.66109 6389 ft 146 kts 357°
2026-05-04 02:36 39.79411 -104.66096 6192 ft 146 kts 358°
2026-05-04 02:37 39.80381 -104.66085 6021 ft 144 kts 359°
2026-05-04 02:37 39.81368 -104.66069 5789 ft 138 kts 358°
2026-05-04 02:37 39.82342 -104.66058 5579 ft 145 kts 360°
2026-05-04 02:37 39.83345 -104.66046 5449 ft 140 kts 360°
2026-05-04 02:38 39.84231 -104.66047 5416 ft 110 kts
2026-05-04 02:38 39.84816 -104.66096 5407 ft 58 kts 339°
2026-05-04 02:38 39.84957 -104.66204 5398 ft 0 kts 332°
2026-05-04 02:39 39.84967 -104.66210 5402 ft 2 kts 335°
2026-05-04 02:39 39.84991 -104.66222 5403 ft 5 kts 340°
2026-05-04 02:39 39.85017 -104.66231 5401 ft 0 kts 346°
2026-05-04 02:39 39.85040 -104.66237 5401 ft 15 kts 349°
2026-05-04 02:40 39.85231 -104.66252 5397 ft 36 kts
2026-05-04 02:40 39.85502 -104.66242 5396 ft 28 kts 357°
2026-05-04 02:40 39.85585 -104.66437 5390 ft 28 kts 271°
2026-05-04 02:40 39.85589 -104.66547 5387 ft 11 kts 283°
2026-05-04 02:41 39.85635 -104.66779 5382 ft 41 kts 284°
2026-05-04 02:41 39.85674 -104.67160 5383 ft 36 kts 290°
2026-05-04 02:41 39.85761 -104.67275 5381 ft 13 kts 334°
2026-05-04 02:41 39.85784 -104.67282 5381 ft 1 kts 358°
2026-05-04 02:42 39.85789 -104.67282 5382 ft 2 kts 359°
2026-05-04 02:42 39.85802 -104.67282 5382 ft 0 kts 359°